EW6088 Weather Reports


time (UTC)temp
F
wind
direction
speed
knots
gust
knots
rain 1hr
in
rain 24hr
in
rain mn
in
humidity
%
barometer
mb
20260505035403 54 83 0.0 2.6 0.00 0.00 0.00 61 1018.5
20260505034503 55 101 0.9 2.6 0.00 0.00 0.00 59 1018.9
20260505033603 55 111 0.9 3.5 0.00 0.00 0.00 58 1019.0
20260505032703 55 134 0.9 3.5 0.00 0.00 0.00 58 1019.0
20260505031803 55 112 0.9 2.6 0.00 0.00 0.00 58 1018.9
20260505030903 55 73 0.0 1.7 0.00 0.00 0.00 58 1019.1
20260505030003 55 113 0.0 1.7 0.00 0.00 0.00 57 1019.2
20260505025403 55 94 0.0 1.7 0.00 0.00 0.00 57 1019.1
20260505024503 55 48 0.0 1.7 0.00 0.00 0.00 55 1019.2
20260505023624 56 59 0.0 1.7 0.00 0.00 0.00 55 1019.3
20260505022703 56 63 0.0 2.6 0.00 0.00 0.00 54 1019.2
20260505021803 56 60 0.0 2.6 0.00 0.00 0.00 54 1019.1
20260505020903 57 85 0.0 1.7 0.00 0.00 0.00 52 1019.2
20260505020024 56 94 0.0 2.6 0.00 0.00 0.00 52 1019.2
20260505015403 56 98 0.0 2.6 0.00 0.00 0.00 52 1019.2
20260505014503 57 79 0.0 0.9 0.00 0.00 0.00 52 1019.3
20260505013624 57 125 0.0 0.9 0.00 0.00 0.00 51 1019.0
20260505012703 58 94 0.0 0.9 0.00 0.00 0.00 49 1018.9
20260505011803 58 0 0.0 0.0 0.00 0.00 0.00 49 1019.1
20260505010903 59 70 0.0 0.9 0.00 0.00 0.00 48 1018.9
20260505010003 59 52 0.0 1.7 0.00 0.00 0.00 48 1019.0
20260505005403 60 53 0.0 1.7 0.00 0.00 0.00 47 1018.8
20260505004503 60 119 0.0 3.5 0.00 0.00 0.00 46 1018.7
20260505003603 61 128 0.9 7.8 0.00 0.00 0.00 45 1018.4
20260505002703 61 127 0.9 1.7 0.00 0.00 0.00 45 1018.4
20260505001803 62 136 0.9 5.2 0.00 0.00 0.00 45 1018.4
20260505000903 63 135 0.9 5.2 0.00 0.00 0.00 44 1018.3
20260505000003 63 145 1.7 6.1 0.00 0.00 0.00 43 1018.3
20260504235403 64 133 1.7 6.1 0.00 0.00 0.00 42 1018.3
20260504234503 65 134 1.7 7.8 0.00 0.00 0.00 41 1018.2
20260504233603 66 115 1.7 7.0 0.00 0.00 0.00 40 1018.1
20260504232703 67 141 1.7 7.0 0.00 0.00 0.00 39 1018.0
20260504231803 68 148 1.7 6.1 0.00 0.00 0.00 37 1018.0
20260504230903 69 155 0.9 6.1 0.00 0.00 0.00 37 1017.9
20260504230003 70 184 1.7 7.8 0.00 0.00 0.00 38 1017.8
20260504225403 71 97 1.7 7.8 0.00 0.00 0.00 37 1017.9
20260504224503 71 107 1.7 7.0 0.00 0.00 0.00 36 1017.8
20260504223603 71 152 1.7 7.0 0.00 0.00 0.00 35 1018.0
20260504222703 73 143 1.7 6.1 0.00 0.00 0.00 34 1017.8
20260504221803 73 147 2.6 8.7 0.00 0.00 0.00 34 1017.9
20260504220903 74 146 1.7 7.0 0.00 0.00 0.00 34 1017.8
20260504220003 75 154 2.6 8.7 0.00 0.00 0.00 34 1017.8
20260504215403 75 153 1.7 7.8 0.00 0.00 0.00 33 1017.9
20260504214503 75 145 1.7 7.0 0.00 0.00 0.00 32 1017.9
20260504213603 76 137 1.7 7.0 0.00 0.00 0.00 32 1017.9
20260504212703 76 136 2.6 7.0 0.00 0.00 0.00 32 1018.0
20260504211803 76 268 1.7 7.0 0.00 0.00 0.00 33 1017.9
20260504210903 78 108 1.7 7.0 0.00 0.00 0.00 34 1018.0
20260504210003 78 162 1.7 7.8 0.00 0.00 0.00 34 1017.7
20260504205403 77 58 0.9 7.8 0.00 0.00 0.00 33 1017.9
20260504204503 76 144 1.7 7.8 0.00 0.00 0.00 33 1018.0
20260504203603 76 250 1.7 7.8 0.00 0.00 0.00 34 1018.0
20260504202703 76 282 1.7 7.0 0.00 0.00 0.00 37 1018.0
20260504201803 75 257 1.7 7.0 0.00 0.00 0.00 36 1018.1
20260504200903 73 278 1.7 6.1 0.00 0.00 0.00 38 1018.1
20260504200003 74 347 1.7 6.1 0.00 0.00 0.00 37 1018.3
20260504195404 74 16 1.7 5.2 0.00 0.00 0.00 37 1018.2
20260504194503 74 149 1.7 6.1 0.00 0.00 0.00 36 1018.4
20260504193603 73 128 1.7 5.2 0.00 0.00 0.00 38 1018.4
20260504192703 72 180 1.7 7.8 0.00 0.00 0.00 37 1018.7
20260504191803 73 179 1.7 6.1 0.00 0.00 0.00 42 1018.9
20260504190924 72 359 1.7 5.2 0.00 0.00 0.00 36 1018.7
20260504190003 74 275 1.7 5.2 0.00 0.00 0.00 39 1018.9
20260504185403 74 169 1.7 5.2 0.00 0.00 0.00 40 1019.1
20260504184503 72 210 1.7 7.8 0.00 0.00 0.00 36 1018.9
20260504183603 72 285 1.7 7.0 0.00 0.00 0.00 38 1019.1
20260504182703 73 209 1.7 6.1 0.00 0.00 0.00 37 1019.1
20260504181803 73 223 1.7 7.0 0.00 0.00 0.00 38 1018.9
20260504180903 72 247 1.7 7.0 0.00 0.00 0.00 40 1019.0
20260504180003 71 244 1.7 5.2 0.00 0.00 0.00 38 1019.2
20260504175424 70 12 1.7 5.2 0.00 0.00 0.00 38 1019.2
20260504174503 71 357 0.9 5.2 0.00 0.00 0.00 40 1019.4
20260504173603 71 17 0.9 5.2 0.00 0.00 0.00 39 1019.4
20260504172703 70 116 1.7 3.5 0.00 0.00 0.00 35 1019.4
20260504171803 70 171 1.7 7.8 0.00 0.00 0.00 37 1019.3
20260504170903 69 227 1.7 5.2 0.00 0.00 0.00 38 1019.4
20260504150903 57 27 2.6 8.7 0.00 0.00 0.00 51 1021.2
20260504140903 55 154 1.7 8.7 0.00 0.00 0.00 57 1020.6
20260504081803 38 42 0.9 2.6 0.00 0.00 0.00 79 1019.0
20260504080903 38 36 0.9 1.7 0.00 0.00 0.00 78 1019.0
20260504050003 38 49 0.0 0.9 0.00 0.00 0.00 76 1020.0
20260504045424 38 43 0.0 1.7 0.00 0.00 0.00 76 1020.2
20260504044524 38 62 0.0 0.9 0.00 0.00 0.00 76 1020.0
20260504043603 38 26 0.0 0.9 0.00 0.00 0.00 75 1020.0
20260504042724 38 52 0.0 0.9 0.00 0.00 0.00 74 1019.8
20260504041803 39 82 0.0 0.9 0.00 0.00 0.00 72 1019.8
20260504040903 39 57 0.0 0.9 0.00 0.00 0.00 72 1020.0